TimeEDT,TemperatureF,Dew PointF,Humidity,Sea Level PressureIn,VisibilityMPH,Wind Direction,Wind SpeedMPH,Gust SpeedMPH,PrecipitationIn,Events,Conditions,WindDirDegrees,DateUTC
12:15 AM,39.2,19.4,45,30.07,10.0,Calm,Calm,-,N/A,,Clear,0,2012-03-16 04:15:00
12:35 AM,37.4,21.2,52,30.07,10.0,NNE,3.5,-,N/A,,Clear,30,2012-03-16 04:35:00
12:55 AM,37.4,19.4,48,30.07,10.0,Calm,Calm,-,N/A,,Clear,0,2012-03-16 04:55:00
1:15 AM,35.6,19.4,52,30.07,10.0,Calm,Calm,-,N/A,,Clear,0,2012-03-16 05:15:00
1:35 AM,35.6,19.4,52,30.07,10.0,Calm,Calm,-,N/A,,Clear,0,2012-03-16 05:35:00
1:55 AM,33.8,19.4,56,30.08,10.0,Calm,Calm,-,N/A,,Clear,0,2012-03-16 05:55:00
2:15 AM,33.8,19.4,56,30.07,10.0,Calm,Calm,-,N/A,,Clear,0,2012-03-16 06:15:00
2:35 AM,30.2,19.4,64,30.07,10.0,Calm,Calm,-,N/A,,Clear,0,2012-03-16 06:35:00
2:55 AM,30.2,19.4,64,30.07,10.0,NNW,3.5,-,N/A,,Clear,340,2012-03-16 06:55:00
3:15 AM,30.2,19.4,64,30.07,10.0,NW,3.5,-,N/A,,Clear,320,2012-03-16 07:15:00
3:35 AM,30.2,19.4,64,30.06,10.0,Calm,Calm,-,N/A,,Clear,0,2012-03-16 07:35:00
3:55 AM,28.4,19.4,69,30.06,10.0,Calm,Calm,-,N/A,,Clear,0,2012-03-16 07:55:00
4:35 AM,28.4,19.4,69,30.06,10.0,NNW,3.5,-,N/A,,Clear,330,2012-03-16 08:35:00
4:55 AM,28.4,19.4,69,30.05,10.0,NNW,5.8,-,N/A,,Clear,340,2012-03-16 08:55:00
5:15 AM,30.2,17.6,60,30.06,10.0,NW,4.6,-,N/A,,Clear,320,2012-03-16 09:15:00
5:35 AM,30.2,19.4,64,30.06,10.0,NW,3.5,-,N/A,,Clear,320,2012-03-16 09:35:00
5:55 AM,30.2,17.6,60,30.06,10.0,NNW,4.6,-,N/A,,Clear,340,2012-03-16 09:55:00
6:15 AM,32.0,17.6,55,30.07,10.0,NW,3.5,-,N/A,,Clear,320,2012-03-16 10:15:00
6:35 AM,30.2,17.6,60,30.08,10.0,Calm,Calm,-,N/A,,Clear,0,2012-03-16 10:35:00
6:55 AM,28.4,19.4,69,30.08,10.0,Calm,Calm,-,N/A,,Clear,0,2012-03-16 10:55:00
7:15 AM,28.4,19.4,69,30.09,10.0,Calm,Calm,-,N/A,,Clear,0,2012-03-16 11:15:00
7:35 AM,28.4,17.6,64,30.09,10.0,Calm,Calm,-,N/A,,Clear,0,2012-03-16 11:35:00
7:55 AM,28.4,19.4,69,30.10,10.0,Calm,Calm,-,N/A,,Clear,0,2012-03-16 11:55:00
8:15 AM,28.4,19.4,69,30.10,7.0,Calm,Calm,-,N/A,,Clear,0,2012-03-16 12:15:00
8:35 AM,28.4,19.4,69,30.11,10.0,Calm,Calm,-,N/A,,Clear,0,2012-03-16 12:35:00
8:55 AM,30.2,21.2,69,30.11,10.0,Calm,Calm,-,N/A,,Clear,0,2012-03-16 12:55:00
9:15 AM,33.8,23.0,65,30.11,10.0,Calm,Calm,-,N/A,,Clear,0,2012-03-16 13:15:00
9:35 AM,39.2,23.0,52,30.12,10.0,Calm,Calm,-,N/A,,Clear,0,2012-03-16 13:35:00
9:55 AM,42.8,19.4,39,30.12,10.0,NE,4.6,-,N/A,,Clear,40,2012-03-16 13:55:00
10:15 AM,44.6,19.4,37,30.12,10.0,NE,4.6,-,N/A,,Clear,50,2012-03-16 14:15:00
10:35 AM,44.6,17.6,34,30.12,10.0,ENE,3.5,-,N/A,,Clear,70,2012-03-16 14:35:00
10:55 AM,46.4,17.6,32,30.11,10.0,Calm,Calm,-,N/A,,Clear,0,2012-03-16 14:55:00
11:15 AM,48.2,19.4,32,30.11,10.0,ESE,3.5,-,N/A,,Clear,110,2012-03-16 15:15:00
11:35 AM,50.0,17.6,28,30.12,10.0,ESE,5.8,-,N/A,,Clear,110,2012-03-16 15:35:00
11:55 AM,51.8,19.4,28,30.11,10.0,ESE,3.5,-,N/A,,Clear,120,2012-03-16 15:55:00
12:15 PM,51.8,17.6,26,30.11,10.0,SE,6.9,-,N/A,,Clear,140,2012-03-16 16:15:00
12:35 PM,50.0,17.6,28,30.11,10.0,SSE,6.9,-,N/A,,Clear,150,2012-03-16 16:35:00
1:15 PM,50.0,19.4,30,30.09,10.0,SSE,6.9,-,N/A,,Clear,160,2012-03-16 17:15:00
1:35 PM,51.8,19.4,28,30.09,10.0,ESE,4.6,-,N/A,,Clear,110,2012-03-16 17:35:00
1:55 PM,53.6,19.4,26,30.08,10.0,ESE,4.6,-,N/A,,Clear,110,2012-03-16 17:55:00
2:15 PM,55.4,19.4,25,30.08,10.0,SE,5.8,-,N/A,,Clear,140,2012-03-16 18:15:00
2:35 PM,55.4,19.4,25,30.07,10.0,SE,6.9,-,N/A,,Clear,130,2012-03-16 18:35:00
2:55 PM,55.4,21.2,26,30.05,10.0,SE,9.2,-,N/A,,Clear,140,2012-03-16 18:55:00
3:15 PM,55.4,19.4,25,30.05,10.0,SE,8.1,-,N/A,,Clear,140,2012-03-16 19:15:00
3:35 PM,55.4,19.4,25,30.05,10.0,SSE,6.9,-,N/A,,Clear,150,2012-03-16 19:35:00
3:55 PM,55.4,19.4,25,30.05,10.0,SE,8.1,-,N/A,,Clear,140,2012-03-16 19:55:00
4:15 PM,55.4,21.2,26,30.05,10.0,SE,6.9,-,N/A,,Clear,130,2012-03-16 20:15:00
4:35 PM,55.4,23.0,29,30.05,10.0,ESE,5.8,-,N/A,,Clear,120,2012-03-16 20:35:00
4:55 PM,55.4,24.8,31,30.04,10.0,SE,5.8,-,N/A,,Partly Cloudy,130,2012-03-16 20:55:00
5:15 PM,55.4,26.6,33,30.04,10.0,ESE,6.9,-,N/A,,Mostly Cloudy,120,2012-03-16 21:15:00
5:35 PM,55.4,28.4,36,30.04,10.0,ESE,5.8,-,N/A,,Mostly Cloudy,120,2012-03-16 21:35:00
5:55 PM,57.2,30.2,36,30.03,10.0,East,5.8,-,N/A,,Partly Cloudy,100,2012-03-16 21:55:00
6:15 PM,57.2,30.2,36,30.03,10.0,SE,5.8,-,N/A,,Clear,130,2012-03-16 22:15:00
6:35 PM,55.4,28.4,36,30.03,10.0,SE,4.6,-,N/A,,Clear,130,2012-03-16 22:35:00
6:55 PM,55.4,28.4,36,30.03,10.0,SE,4.6,-,N/A,,Mostly Cloudy,140,2012-03-16 22:55:00
7:15 PM,53.6,28.4,38,30.03,10.0,Calm,Calm,-,N/A,,Mostly Cloudy,0,2012-03-16 23:15:00
7:35 PM,51.8,28.4,41,30.03,10.0,Calm,Calm,-,N/A,,Clear,0,2012-03-16 23:35:00
7:55 PM,50.0,30.2,47,30.03,10.0,Calm,Calm,-,N/A,,Mostly Cloudy,0,2012-03-16 23:55:00
8:15 PM,48.2,28.4,46,30.04,10.0,SSE,6.9,-,N/A,,Overcast,150,2012-03-17 00:15:00
8:35 PM,46.4,26.6,46,30.04,10.0,SSE,3.5,-,N/A,,Overcast,160,2012-03-17 00:35:00
8:55 PM,42.8,26.6,53,30.04,10.0,Calm,Calm,-,N/A,,Partly Cloudy,0,2012-03-17 00:55:00
9:35 PM,42.8,26.6,53,30.04,10.0,Calm,Calm,-,N/A,,Clear,0,2012-03-17 01:35:00
9:55 PM,41.0,26.6,57,30.04,10.0,Calm,Calm,-,N/A,,Clear,0,2012-03-17 01:55:00
10:15 PM,41.0,26.6,57,30.04,10.0,Calm,Calm,-,N/A,,Clear,0,2012-03-17 02:15:00
10:35 PM,42.8,28.4,57,30.04,10.0,SE,3.5,-,N/A,,Mostly Cloudy,130,2012-03-17 02:35:00
10:55 PM,42.8,30.2,61,30.04,10.0,SE,5.8,-,N/A,,Overcast,130,2012-03-17 02:55:00
11:15 PM,42.8,30.2,61,30.04,10.0,SE,8.1,-,N/A,,Overcast,140,2012-03-17 03:15:00
11:55 PM,39.2,33.8,81,30.04,1.8,SE,3.5,-,N/A,,Overcast,140,2012-03-17 03:55:00